Location: Mary A Oil Field
(38.5606°N, 98.9545°W)
Time: 19:27:28
(UTC+00:00)

YAOGAN 6 - Pass Details

Date: 20 January 2020
Orbit: 465 x 505 km, 97.0° (Epoch: 28 February)

Event Time Altitude Azimuth Distance (km) Brightness Sun altitude
Rises 00:58:59 0° 180° (S) 2,591 6.4 -14.8°
Reaches altitude 10° 01:01:06 10° 186° (S) 1,711 5.6 -15.2°
Maximum altitude 01:04:41 48° 261° (W) 670 3.7 -15.9°
Drops below altitude 10° 01:08:16 10° 337° (NNW) 1,716 5.5 -16.6°
Sets 01:10:25 0° 343° (NNW) 2,600 6.3 -17.0°
